Location: L�Adrech
(44.2500°N, 6.4167°E)
Time: 00:57:23
(UTC+00:00)

SL-16 R/B - Pass Details

Date: 07 June 2020
Orbit: 842 x 846 km, 71.0° (Epoch: 12 July)

Event Time Altitude Azimuth Distance (km) Brightness Sun altitude
Exits shadow 02:04:55 21° 227° (SW) 1,810 3.3 -14.5°
Maximum altitude 02:08:39 57° 299° (WNW) 992 2.5 -14.1°
Drops below altitude 10° 02:14:14 10° 18° (NNE) 2,475 5.8 -13.5°
Sets 02:16:45 0° 23° (NNE) 3,414 7.0 -13.2°
